Location: Omaha
(41.2590°N, 95.9380°W)
Time: 15:47:57
(UTC-05:00)

N. Korean satellite - Pass Details

Date: 16 October 2017
Orbit: 459 x 517 km, 97.2° (Epoch: 23 October)

Event Time Altitude Azimuth Distance (km) Brightness Sun altitude
Rises 19:10:19 0° 158° (SSE) 2,539 10.1 -6.3°
Reaches altitude 10° 19:12:24 10° 154° (SSE) 1,654 9.1 -6.7°
Maximum altitude 19:15:53 56° 75° (ENE) 572 6.6 -7.3°
Drops below altitude 10° 19:19:20 10° 357° (N) 1,638 9.2 -8.0°
Sets 19:21:24 0° 353° (N) 2,512 10.2 -8.4°
